Location: Goudex
(43.3760°N, 0.9543°E)
Time: 22:36:10
(UTC+00:00)

PAYLOAD B - Pass Details

Date: 20 November 2019
Orbit: 848 x 872 km, 99.1° (Epoch: 11 December)

Event Time Altitude Azimuth Distance (km) Brightness Sun altitude
Rises 05:21:29 0° 14° (NNE) 3,425 7.4 -16.9°
Reaches altitude 10° 05:23:51 10° 15° (NNE) 2,484 6.7 -16.5°
Maximum altitude 05:29:23 86° 104° (ESE) 857 4.2 -15.5°
Drops below altitude 10° 05:34:52 10° 194° (SSW) 2,468 6.6 -14.5°
Sets 05:37:13 0° 195° (SSW) 3,402 7.3 -14.1°
